TimeMDT,TemperatureF,Dew PointF,Humidity,Sea Level PressureIn,VisibilityMPH,Wind Direction,Wind SpeedMPH,Gust SpeedMPH,PrecipitationIn,Events,Conditions,WindDirDegrees,DateUTC
12:53 AM,32.0,30.0,92,30.22,10.0,Calm,Calm,-,N/A,,Scattered Clouds,0,2013-09-28 06:53:00
1:53 AM,30.9,28.9,92,30.24,10.0,Calm,Calm,-,N/A,,Clear,0,2013-09-28 07:53:00
2:53 AM,30.0,28.0,92,30.25,10.0,Calm,Calm,-,N/A,,Partly Cloudy,0,2013-09-28 08:53:00
3:53 AM,28.9,27.0,92,30.26,10.0,NE,3.5,-,N/A,,Clear,50,2013-09-28 09:53:00
4:53 AM,28.0,27.0,96,30.28,10.0,ENE,6.9,-,N/A,,Clear,60,2013-09-28 10:53:00
5:53 AM,28.0,26.1,92,30.30,10.0,Calm,Calm,-,N/A,,Clear,0,2013-09-28 11:53:00
6:53 AM,28.9,26.1,89,30.31,10.0,Calm,Calm,-,N/A,,Clear,0,2013-09-28 12:53:00
7:53 AM,30.0,27.0,88,30.35,10.0,ENE,3.5,-,N/A,,Clear,70,2013-09-28 13:53:00
8:53 AM,34.0,28.9,82,30.35,10.0,Calm,Calm,-,N/A,,Clear,0,2013-09-28 14:53:00
9:53 AM,37.0,30.0,76,30.32,10.0,Calm,Calm,-,N/A,,Clear,0,2013-09-28 15:53:00
10:53 AM,42.1,32.0,67,30.30,10.0,Calm,Calm,-,N/A,,Clear,0,2013-09-28 16:53:00
11:53 AM,46.9,33.1,59,30.27,10.0,Calm,Calm,-,N/A,,Clear,0,2013-09-28 17:53:00
12:53 PM,48.0,33.1,56,30.25,10.0,ESE,3.5,-,N/A,,Clear,120,2013-09-28 18:53:00
1:53 PM,51.1,33.1,50,30.22,10.0,NE,5.8,-,N/A,,Clear,40,2013-09-28 19:53:00
2:53 PM,55.0,34.0,45,30.19,10.0,Variable,3.5,-,N/A,,Clear,0,2013-09-28 20:53:00
3:53 PM,55.9,30.9,39,30.18,10.0,Variable,6.9,-,N/A,,Clear,0,2013-09-28 21:53:00
4:53 PM,57.0,28.9,34,30.18,10.0,SW,9.2,-,N/A,,Clear,220,2013-09-28 22:53:00
5:53 PM,55.9,30.9,39,30.18,10.0,South,10.4,-,N/A,,Clear,190,2013-09-28 23:53:00
6:53 PM,51.1,33.1,50,30.20,10.0,SSW,5.8,-,N/A,,Clear,200,2013-09-29 00:53:00
7:53 PM,46.0,35.1,66,30.23,10.0,Calm,Calm,-,N/A,,Clear,0,2013-09-29 01:53:00
8:53 PM,44.1,30.9,60,30.25,10.0,NNE,3.5,-,N/A,,Clear,30,2013-09-29 02:53:00
9:53 PM,39.9,32.0,73,30.25,10.0,Calm,Calm,-,N/A,,Clear,0,2013-09-29 03:53:00
10:53 PM,37.0,32.0,82,30.23,10.0,Calm,Calm,-,N/A,,Clear,0,2013-09-29 04:53:00
11:53 PM,36.0,32.0,86,30.21,10.0,Calm,Calm,-,N/A,,Clear,0,2013-09-29 05:53:00